User: anonymous
Location: Hepcat Sky Observatory
(29.9800°N, 95.6500°W)
Time: 06:07:16
(UTC-05:00)
Language:

Cosmos 1602 Rocket - Orbit

View from above orbital plane
View from above orbital plane
View from above satellite
View from above satellite

Ground track
Ground track

The orbit data is extracted from the following two-line orbital elements,

1 15332U 84105B   14210.33158840  .00000242  00000-0  26987-4 0  7073
2 15332 082.5342 092.8696 0020219 241.7390 215.9732 14.82746764610386
Epoch (UTC): 29 July 2014 07:57:29
Eccentricity: 0.0020219
inclination: 82.5342°
perigee height: 606 km
apogee height: 635 km
right ascension of ascending node: 92.8696°
argument of perigee: 241.7390°
revolutions per day: 14.82746764
mean anomaly at epoch: 215.9732°
orbit number at epoch: 61038

The dashed part of the orbit path shows where the satellite is in the earth's shadow,  

DLR